GFSFLT2_925_thetae_057.txt.gz
Theta_e
332 332 331 329 328 333 333 331 332 331 330 329 329 328 328 329 328 324 324 325 321 314 312 313 314 313 314 315 318 319 319 319
332 331 331 330 328 330 330 331 330 330 329 329 329 328 329 328 324 320 321 321 321 315 314 315 315 313 313 314 315 317 318 319
329 330 329 328 327 325 324 331 328 330 329 328 329 329 328 324 321 321 322 321 320 317 317 316 315 314 313 313 316 317 318 319
327 328 325 329 329 325 325 325 326 329 329 329 329 327 325 320 319 321 321 321 320 318 317 316 318 318 315 313 316 318 318 319
325 325 326 329 328 326 322 325 327 324 328 327 326 323 317 316 315 316 320 320 323 321 318 320 319 318 316 315 317 318 318 318
324 323 324 324 323 321 319 320 323 323 326 323 319 318 314 315 314 315 315 316 318 320 319 318 317 314 312 313 316 317 318 318
324 322 321 320 320 320 319 321 324 323 323 320 316 316 314 314 314 314 314 314 315 316 316 317 316 314 313 311 312 316 318 318
324 322 320 319 318 319 322 323 324 323 324 319 315 316 315 314 314 314 314 313 313 313 313 314 316 313 312 311 311 314 317 318
323 322 320 319 318 318 319 320 320 321 322 319 315 316 316 314 314 314 316 315 314 313 312 312 312 311 310 310 310 310 311 314
323 322 321 319 317 318 320 319 320 322 323 321 316 317 316 316 314 314 316 316 315 314 313 309 308 308 308 308 308 308 308 308
323 322 322 320 318 317 319 319 321 322 319 319 321 318 317 317 316 316 317 317 316 315 313 310 308 307 306 306 307 307 307 306
323 323 321 319 318 318 320 319 318 319 318 317 317 320 317 317 317 316 316 318 316 315 315 311 310 309 306 306 306 306 306 306
320 321 321 320 319 319 320 320 320 319 318 318 319 321 317 317 317 317 317 317 318 318 315 313 311 309 307 306 305 305 305 306
319 320 321 320 320 320 321 319 321 321 320 319 320 321 317 317 317 317 318 317 317 318 317 316 314 312 311 310 314 311 307 306
319 319 320 320 320 320 321 320 319 320 321 320 319 319 317 317 317 318 319 318 318 320 319 318 315 313 311 315 315 318 312 309
319 318 319 319 320 320 321 318 317 319 320 320 318 317 318 319 320 319 320 320 320 321 321 319 317 316 311 311 312 312 315 314
318 318 318 319 320 320 319 318 318 320 319 320 319 320 320 317 316 316 317 318 319 322 321 320 319 317 315 313 310 308 308 312
316 318 317 318 318 319 319 318 318 316 317 319 317 316 317 316 316 317 316 315 316 318 320 321 321 317 316 314 314 311 308 308
315 317 318 316 317 318 317 317 318 316 316 318 319 315 315 315 315 315 314 314 314 315 316 319 320 321 320 318 316 316 313 312
315 316 317 317 316 316 317 318 317 318 317 317 318 316 315 315 315 315 315 315 315 315 316 315 317 320 321 319 319 320 318 312

GFSFLT2_925_thetae_063.txt.gz
Theta_e
339 339 336 331 331 333 335 337 336 335 334 334 333 330 327 328 330 328 327 325 325 322 322 321 320 321 321 320 320 321 321 321
336 334 332 329 322 328 333 336 336 334 334 334 332 328 328 330 331 327 321 317 316 319 320 318 319 320 319 320 320 321 321 321
335 331 329 325 323 327 328 329 335 332 333 333 331 330 331 331 331 327 314 315 315 315 314 314 317 317 319 320 321 321 321 321
334 332 330 327 326 327 325 325 333 332 333 331 329 331 331 330 331 326 313 315 314 313 313 313 317 317 319 319 322 322 321 321
333 332 332 330 329 328 326 329 333 333 332 331 329 329 329 329 328 321 318 317 320 318 314 318 317 316 320 322 322 322 321 320
331 331 330 329 328 327 327 326 330 330 331 328 329 327 327 328 327 324 321 322 321 319 320 320 319 318 320 322 322 322 321 320
329 330 329 329 328 327 327 328 326 327 326 325 326 326 326 327 327 326 323 324 322 321 323 321 319 319 320 322 321 322 321 320
330 327 328 327 327 326 325 327 325 323 322 323 326 326 326 326 326 326 324 324 323 322 323 321 319 319 320 321 321 322 321 321
327 325 325 325 324 326 326 325 325 322 320 321 321 324 324 326 326 326 325 324 323 322 322 321 319 319 319 320 320 321 321 321
326 324 324 325 324 322 323 324 324 323 323 321 319 320 322 323 323 323 323 324 323 321 320 320 319 318 319 319 319 320 320 321
327 324 324 324 324 322 322 323 323 322 320 319 318 322 321 322 321 321 321 321 321 320 319 319 319 318 318 318 318 318 319 319
327 325 324 322 322 321 322 321 321 319 319 321 322 321 320 320 320 320 319 318 318 319 319 318 317 317 316 316 317 316 317 316
326 324 322 320 321 321 321 322 320 319 320 321 320 319 318 317 319 320 320 319 318 318 318 317 316 315 314 315 315 315 315 315
324 324 322 320 320 321 321 321 321 320 319 321 321 317 320 316 320 320 321 321 320 320 320 320 318 315 314 314 317 316 315 315
325 322 322 320 320 320 321 320 320 319 320 319 319 321 320 321 322 322 321 323 323 322 322 322 320 318 317 320 321 321 320 316
326 324 321 322 320 319 320 320 321 319 318 321 318 318 321 321 319 321 322 322 323 323 324 323 322 322 320 319 321 322 324 323
323 325 324 323 323 321 320 320 321 321 319 320 320 317 320 321 321 320 322 323 323 324 324 324 324 322 323 322 321 321 322 322
324 323 324 324 322 322 321 320 320 320 321 320 319 319 320 320 321 320 318 322 323 323 322 324 324 323 322 323 322 322 321 321
324 323 323 323 323 322 322 321 321 320 320 320 320 319 321 322 322 322 320 318 320 319 322 322 323 324 324 323 322 323 322 321
325 323 324 323 322 322 322 322 323 320 319 319 320 320 320 322 323 323 322 319 318 320 319 318 318 318 322 323 322 321 322 322

GFSFLT2_925_thetae_066.txt.gz
Theta_e
340 340 337 335 334 336 333 333 334 333 336 336 335 334 332 330 329 329 329 327 326 324 320 320 319 321 322 321 322 322 321 321
336 339 339 336 332 331 331 329 328 335 336 335 334 332 330 329 328 328 327 326 325 322 320 320 321 322 320 321 322 321 321 321
335 336 335 334 332 325 324 326 326 327 335 335 333 330 329 329 328 327 325 325 323 321 316 320 321 320 320 321 321 321 321 320
337 334 332 330 327 325 328 327 323 319 332 332 331 332 332 330 328 322 322 321 319 314 313 316 318 319 320 321 322 321 320 319
334 335 333 330 330 328 327 327 325 327 331 331 332 332 331 331 326 318 318 316 314 313 314 315 317 319 320 322 323 321 320 319
333 332 333 331 329 328 329 325 326 326 331 331 331 330 329 330 324 319 317 316 314 312 314 318 315 320 321 323 322 321 320 318
331 331 330 329 328 327 327 324 326 327 329 330 329 329 329 328 323 319 320 320 318 312 319 319 317 318 322 321 322 321 320 318
330 331 329 329 329 327 327 327 329 329 328 328 327 327 328 327 324 320 322 321 320 320 322 319 319 320 322 322 322 321 320 319
329 328 328 327 328 328 327 327 326 329 326 326 325 326 327 327 326 323 324 322 323 321 323 321 320 320 321 321 322 322 321 320
327 326 325 326 325 325 326 325 326 325 322 323 324 325 326 326 325 324 325 323 324 322 322 321 320 320 320 321 321 321 322 320
327 326 325 325 324 324 325 325 325 323 323 323 322 323 325 325 325 324 325 324 324 324 321 321 320 320 320 320 320 321 321 321
327 325 325 325 323 323 323 323 324 322 321 321 322 323 323 323 323 324 324 324 323 322 320 321 320 319 319 319 319 319 320 320
327 325 324 324 322 323 322 322 322 322 321 321 319 321 321 322 321 321 321 321 320 320 320 319 320 318 318 318 318 318 318 318
327 326 324 323 322 322 322 321 320 319 318 318 319 320 321 320 321 320 319 319 318 319 318 317 317 316 316 316 315 315 315 315
326 325 323 322 322 322 322 321 319 319 319 320 320 321 320 319 319 317 319 319 318 318 318 318 318 316 315 316 317 317 316 316
326 324 322 322 322 322 321 321 320 319 320 321 320 320 319 319 318 319 317 321 320 320 319 320 320 318 315 316 318 322 321 319
326 324 322 321 320 322 321 321 320 319 319 320 320 320 320 319 320 320 322 317 322 322 322 321 323 321 318 318 318 320 321 321
326 325 323 323 321 321 321 321 321 320 319 320 320 320 319 320 321 321 322 320 321 322 321 321 323 322 322 323 323 321 321 322
326 326 325 323 323 321 321 320 321 321 319 318 319 319 318 318 320 322 321 319 321 321 320 319 321 322 321 321 320 322 321 322
327 325 325 324 323 322 321 321 321 321 321 319 319 319 318 317 319 320 321 321 318 320 321 320 319 318 320 320 319 320 321 321

GFSFLT2_925_thetae_069.txt.gz
Theta_e
341 341 338 337 337 337 337 336 334 335 333 331 328 335 334 332 331 330 330 329 328 327 325 321 323 322 322 322 322 322 321 320
335 340 339 336 335 335 334 332 329 325 329 332 334 334 332 331 330 329 328 327 326 325 325 320 322 321 321 322 321 321 320 320
334 335 338 337 334 333 332 330 329 328 325 324 332 333 332 330 329 328 327 325 322 321 319 320 321 321 322 321 320 320 319 319
336 335 334 333 332 329 326 324 328 326 325 324 333 332 330 329 328 327 326 322 320 318 318 321 321 321 321 321 320 320 319 318
336 334 332 330 328 326 325 327 326 325 325 325 332 331 330 328 328 325 324 321 319 317 320 321 320 320 321 321 320 320 318 317
334 334 332 331 330 329 328 327 326 322 324 326 332 331 330 328 326 323 321 320 316 317 317 319 320 320 322 322 320 319 318 317
332 331 333 330 328 327 328 327 326 325 327 325 331 330 329 326 322 320 319 315 312 314 314 319 319 321 322 322 320 320 318 317
331 330 330 328 327 327 327 326 326 326 331 330 329 330 328 323 319 318 317 312 311 313 313 318 319 319 322 322 321 320 319 316
330 330 328 328 327 327 327 327 326 327 329 329 329 329 327 321 317 317 315 313 311 318 319 316 318 321 321 322 320 320 319 316
328 328 328 327 327 327 326 327 326 327 328 328 328 328 326 322 318 318 319 315 314 320 322 319 319 320 321 322 321 320 320 318
327 326 326 325 326 325 326 326 327 326 327 327 327 327 326 323 317 322 323 317 319 321 323 320 320 320 321 321 321 321 320 319
326 325 325 324 324 324 323 325 326 327 326 326 326 326 325 324 319 323 325 321 322 321 321 320 320 320 320 320 321 321 321 320
327 326 326 324 323 323 322 324 324 324 323 324 325 324 325 325 323 321 325 323 323 324 321 320 320 320 319 319 320 320 321 321
326 325 325 324 322 323 322 321 322 323 323 322 323 324 324 324 324 323 322 323 323 321 321 321 320 320 318 318 315 317 320 319
326 325 324 323 322 322 321 321 321 321 321 322 322 321 322 322 322 321 320 322 321 320 320 319 318 317 316 317 314 315 314 316
326 324 323 323 322 322 321 320 320 320 320 320 320 321 322 320 321 321 320 319 318 319 318 318 317 316 316 316 316 318 316 316
325 324 324 322 322 322 320 319 320 319 319 319 319 320 320 319 320 319 318 318 317 318 318 318 316 315 316 315 315 317 320 318
325 323 321 322 322 321 320 319 319 318 319 320 319 321 320 320 320 318 317 318 320 319 318 318 318 319 319 317 315 317 319 320
324 323 321 322 321 322 321 320 319 318 318 320 320 320 320 320 319 318 321 319 319 321 320 321 321 321 321 319 319 319 319 320
324 323 322 321 321 321 321 321 320 319 318 319 320 320 320 320 319 319 320 319 320 320 321 321 319 319 319 320 321 321 320 320

GFSFLT2_925_thetae_072.txt.gz
Theta_e
341 340 340 341 341 338 338 337 338 335 333 332 325 331 334 334 334 334 333 331 330 329 327 327 326 323 325 325 324 324 323 321
339 340 338 338 338 339 337 336 333 328 331 330 327 329 332 332 333 333 332 329 328 326 324 323 321 323 323 323 322 321 321 320
335 336 337 337 336 337 336 334 334 331 331 329 328 331 331 332 332 332 330 327 327 324 322 322 320 322 322 321 320 319 319 320
334 335 337 336 334 333 333 331 332 330 327 327 326 324 332 331 330 329 328 326 326 323 321 321 321 321 321 320 320 318 319 319
335 335 334 335 333 331 330 329 329 329 328 325 324 325 331 330 329 327 326 326 325 324 321 321 321 320 320 320 319 317 317 319
336 334 332 331 330 327 326 325 325 326 326 325 324 324 331 330 328 327 324 322 321 320 320 320 320 320 321 320 319 318 317 318
334 333 331 330 328 328 327 326 326 327 325 325 325 329 330 329 327 326 322 319 318 318 321 320 319 320 321 320 319 318 317 318
332 332 331 330 329 328 327 327 326 324 324 325 328 330 328 327 326 324 320 318 316 320 321 319 320 320 322 320 319 318 317 318
331 331 330 328 326 326 326 327 325 326 323 324 329 328 328 326 325 322 319 315 315 318 318 319 321 318 322 320 320 318 317 317
330 330 329 328 326 326 325 325 326 326 328 325 329 327 326 324 321 318 317 312 314 313 317 319 320 319 322 320 319 318 317 317
330 328 328 327 326 326 326 326 326 328 329 329 328 326 325 320 316 316 313 311 312 314 317 316 318 321 321 320 319 319 317 317
328 327 326 325 325 326 326 326 327 328 328 328 328 327 325 317 316 314 312 310 316 318 317 318 319 320 321 321 320 319 318 317
326 325 325 325 324 324 325 324 326 327 327 327 327 327 324 320 317 317 314 312 318 320 322 321 319 320 320 319 321 320 319 319
325 324 324 324 325 323 323 324 325 326 326 327 327 327 326 322 317 321 320 316 316 319 321 319 319 320 319 318 315 317 319 319
326 325 324 324 323 322 322 321 323 324 324 324 325 326 326 324 320 323 324 321 320 323 322 319 319 319 319 318 314 316 315 318
326 325 325 324 323 322 321 320 321 322 323 323 325 324 324 324 324 321 324 324 322 323 322 320 319 318 317 318 318 317 315 314
325 324 324 323 323 322 322 320 321 320 322 322 322 323 323 322 323 324 323 323 323 322 319 318 319 318 317 316 317 317 316 314
324 323 323 323 322 322 321 321 320 319 320 321 320 321 322 322 321 322 320 321 322 322 318 320 318 317 316 317 316 317 318 318
322 322 321 322 322 322 321 320 320 320 319 319 320 320 320 320 320 321 321 321 319 319 319 319 317 316 316 315 315 315 316 317
323 322 321 321 322 322 321 320 319 319 319 319 319 319 320 320 319 319 319 318 318 319 319 319 318 317 316 316 318 318 318 320

GFSFLT2_925_thetae_075.txt.gz
Theta_e
342 341 341 342 342 341 339 337 335 333 335 333 330 330 332 334 335 335 334 333 332 332 331 329 328 327 327 326 326 325 325 324
341 341 340 340 343 339 338 338 336 334 329 328 326 327 328 330 334 334 333 332 331 331 330 329 327 326 326 325 325 324 323 321
339 339 339 339 339 340 338 337 335 327 327 325 327 328 329 330 332 333 332 330 330 329 328 326 325 326 325 324 323 322 320 320
336 335 338 337 334 336 336 336 334 328 325 326 328 328 328 325 330 333 331 329 328 327 322 321 324 324 323 322 321 320 319 319
334 334 336 335 333 334 334 333 331 328 329 328 328 327 328 328 329 331 330 329 326 323 320 322 322 322 321 320 319 319 319 319
334 334 334 332 332 332 332 332 331 330 329 329 328 329 328 328 329 330 329 328 325 322 320 321 322 321 320 319 318 318 318 319
334 333 333 331 330 330 330 330 331 330 327 327 327 325 324 329 329 330 327 327 325 322 320 321 321 320 320 319 317 317 318 318
334 331 330 330 328 327 326 325 325 326 327 326 325 325 327 330 328 328 327 326 325 322 320 320 320 320 320 319 318 317 318 318
331 331 330 330 329 329 328 326 326 326 326 325 325 324 330 329 327 326 325 325 324 321 319 319 320 320 320 319 319 318 318 318
331 331 330 329 327 326 326 327 326 326 325 325 324 326 327 328 326 326 324 322 320 319 319 318 319 320 319 319 318 317 317 317
330 331 329 328 326 326 327 325 325 325 326 324 324 326 327 326 324 325 322 319 319 319 318 318 318 320 319 319 318 317 317 317
329 329 328 327 326 326 325 323 325 325 328 326 326 327 326 324 323 323 319 318 317 319 318 318 318 321 320 319 319 318 317 317
329 328 327 326 325 325 327 325 324 327 327 326 325 327 325 323 322 320 318 316 316 316 317 317 317 321 320 318 317 317 317 317
327 327 326 325 324 325 325 324 323 326 327 327 327 326 323 323 319 317 316 313 314 315 317 317 317 320 319 318 315 317 317 317
326 326 325 324 323 323 323 323 322 325 326 327 327 325 324 322 318 316 315 313 314 316 318 318 318 319 319 319 315 318 317 318
325 324 325 325 324 322 321 322 323 322 323 326 325 326 325 323 318 318 315 314 316 318 320 321 318 318 318 319 319 317 317 314
324 323 323 323 323 321 321 321 321 322 322 324 324 323 326 323 319 320 321 316 317 319 320 320 320 318 318 318 317 315 317 314
323 324 324 323 323 322 322 321 320 320 321 322 323 323 323 324 324 321 321 321 322 318 321 321 318 318 318 318 317 317 317 317
322 323 322 322 323 322 322 321 320 319 321 321 322 322 323 322 322 323 321 318 322 322 320 320 318 318 316 317 318 317 317 316
322 321 321 321 321 321 322 321 321 319 319 321 321 321 322 322 322 323 323 322 320 322 322 321 321 320 319 317 316 317 318 316

GFSFLT2_925_thetae_078.txt.gz
Theta_e
340 340 340 340 339 338 336 334 334 334 335 334 334 329 325 329 332 332 333 335 334 333 334 333 332 331 330 329 328 327 327 326
340 340 342 343 342 340 340 337 335 334 334 333 330 328 329 329 331 333 332 333 333 333 332 331 331 330 329 328 327 326 325 324
340 341 341 344 341 342 338 338 337 334 332 328 326 325 325 324 329 332 333 332 332 332 331 330 329 327 327 326 326 325 324 323
339 339 340 340 339 338 337 337 336 333 330 326 324 324 324 324 330 331 331 331 332 331 328 327 326 326 325 325 324 323 322 321
337 337 337 337 337 334 333 335 334 330 328 326 325 324 325 327 326 327 329 330 331 329 328 326 326 325 324 323 322 320 320 319
334 334 337 334 334 332 333 334 332 328 327 326 326 326 327 329 329 329 328 329 329 326 324 324 325 324 323 322 321 319 319 319
333 336 333 332 332 332 333 333 332 330 329 327 327 328 329 327 325 329 328 329 327 321 322 323 324 323 321 320 319 318 318 319
333 334 331 330 330 330 332 332 331 330 328 327 327 327 328 328 328 328 328 328 325 321 321 322 322 321 320 319 318 317 318 319
334 331 329 330 330 329 330 330 330 328 328 327 327 327 326 327 327 328 328 327 324 321 321 322 321 320 319 318 317 317 318 318
333 331 328 329 329 327 326 325 326 325 327 328 327 327 326 326 328 327 327 327 324 321 320 321 320 320 319 318 317 317 318 318
331 329 328 329 329 328 328 325 325 325 325 324 325 326 325 327 327 326 326 326 324 320 319 320 319 318 319 318 318 318 318 318
329 331 327 329 326 326 324 323 324 324 325 325 324 325 326 327 326 325 325 324 323 320 319 319 320 319 318 318 318 318 318 318
328 330 328 327 326 324 323 323 324 324 325 326 325 324 326 327 327 325 323 323 323 320 318 318 319 318 317 316 316 317 317 318
327 327 328 328 325 324 323 323 324 325 327 325 323 323 323 324 323 323 322 319 319 318 317 316 318 319 318 317 316 316 316 317
326 326 328 325 324 324 324 323 323 325 326 324 324 325 325 324 324 322 320 318 317 318 317 316 318 319 319 318 315 318 316 317
325 325 326 323 323 322 323 322 323 324 326 326 325 326 324 322 321 322 318 317 316 317 317 316 318 318 318 318 320 318 318 314
325 325 324 323 322 322 322 322 322 323 324 325 326 325 324 322 320 321 317 315 314 315 316 317 317 318 318 318 317 316 318 314
324 324 324 321 320 321 321 321 322 322 322 322 324 325 323 323 321 319 316 314 313 314 315 318 318 318 319 319 318 316 316 315
324 322 321 320 319 319 321 321 321 321 322 322 322 322 323 321 323 320 316 314 313 313 317 318 320 320 318 318 317 318 318 318
322 321 320 319 319 318 321 321 321 320 320 321 321 322 322 321 321 321 319 318 314 317 317 319 320 318 318 318 317 316 316 317